TimeCST,TemperatureF,Dew PointF,Humidity,Sea Level PressureIn,VisibilityMPH,Wind Direction,Wind SpeedMPH,Gust SpeedMPH,PrecipitationIn,Events,Conditions,WindDirDegrees,DateUTC
12:15 AM,32.0,26.6,80,30.21,10.0,East,4.6,-,N/A,,Overcast,80,2012-11-05 06:15:00
12:35 AM,32.0,26.6,80,30.21,10.0,East,5.8,-,N/A,,Overcast,80,2012-11-05 06:35:00
12:55 AM,32.0,26.6,80,30.22,10.0,East,4.6,-,N/A,,Overcast,90,2012-11-05 06:55:00
1:15 AM,32.0,26.6,80,30.22,10.0,East,3.5,-,N/A,,Overcast,90,2012-11-05 07:15:00
1:35 AM,32.0,26.6,80,30.22,10.0,East,5.8,-,N/A,,Overcast,90,2012-11-05 07:35:00
1:55 AM,32.0,26.6,80,30.22,10.0,ESE,4.6,-,N/A,,Overcast,110,2012-11-05 07:55:00
2:15 AM,32.0,26.6,80,30.22,10.0,East,4.6,-,N/A,,Overcast,100,2012-11-05 08:15:00
2:35 AM,32.0,26.6,80,30.22,10.0,East,4.6,-,N/A,,Overcast,100,2012-11-05 08:35:00
2:55 AM,32.0,26.6,80,30.21,10.0,East,4.6,-,N/A,,Overcast,100,2012-11-05 08:55:00
3:15 AM,32.0,26.6,80,30.21,10.0,East,3.5,-,N/A,,Overcast,100,2012-11-05 09:15:00
3:35 AM,32.0,26.6,80,30.21,10.0,East,3.5,-,N/A,,Mostly Cloudy,90,2012-11-05 09:35:00
3:55 AM,32.0,26.6,80,30.22,10.0,East,3.5,-,N/A,,Scattered Clouds,80,2012-11-05 09:55:00
4:15 AM,32.0,26.6,80,30.22,10.0,East,3.5,-,N/A,,Mostly Cloudy,80,2012-11-05 10:15:00
4:35 AM,32.0,24.8,75,30.22,10.0,Calm,Calm,-,N/A,,Mostly Cloudy,0,2012-11-05 10:35:00
4:55 AM,30.2,24.8,80,30.22,10.0,East,3.5,-,N/A,,Mostly Cloudy,80,2012-11-05 10:55:00
5:35 AM,30.2,24.8,80,30.22,10.0,East,4.6,-,N/A,,Clear,90,2012-11-05 11:35:00
5:55 AM,30.2,24.8,80,30.22,10.0,East,4.6,-,N/A,,Clear,100,2012-11-05 11:55:00
6:15 AM,30.2,24.8,80,30.21,10.0,East,3.5,-,N/A,,Clear,100,2012-11-05 12:15:00
6:35 AM,30.2,24.8,80,30.21,10.0,East,3.5,-,N/A,,Clear,100,2012-11-05 12:35:00
6:55 AM,28.4,23.0,80,30.21,10.0,East,3.5,-,N/A,,Clear,100,2012-11-05 12:55:00
7:15 AM,28.4,23.0,80,30.21,10.0,East,3.5,-,N/A,,Clear,90,2012-11-05 13:15:00
7:35 AM,30.2,24.8,80,30.22,10.0,Calm,Calm,-,N/A,,Scattered Clouds,0,2012-11-05 13:35:00
7:55 AM,30.2,24.8,80,30.22,10.0,Calm,Calm,-,N/A,,Mostly Cloudy,0,2012-11-05 13:55:00
8:15 AM,32.0,26.6,80,30.22,10.0,ESE,4.6,-,N/A,,Overcast,120,2012-11-05 14:15:00
8:35 AM,32.0,26.6,80,30.22,10.0,East,5.8,-,N/A,,Overcast,100,2012-11-05 14:35:00
8:55 AM,33.8,26.6,75,30.22,10.0,ESE,4.6,-,N/A,,Overcast,120,2012-11-05 14:55:00
9:15 AM,33.8,24.8,70,30.21,10.0,ESE,3.5,-,N/A,,Overcast,120,2012-11-05 15:15:00
9:35 AM,33.8,26.6,75,30.21,10.0,East,4.6,-,N/A,,Mostly Cloudy,80,2012-11-05 15:35:00
9:55 AM,35.6,26.6,70,30.21,10.0,SSE,6.9,-,N/A,,Mostly Cloudy,150,2012-11-05 15:55:00
10:15 AM,37.4,26.6,65,30.21,10.0,East,4.6,-,N/A,,Overcast,90,2012-11-05 16:15:00
10:35 AM,37.4,26.6,65,30.21,10.0,SE,3.5,-,N/A,,Overcast,130,2012-11-05 16:35:00
10:55 AM,41.0,26.6,57,30.20,10.0,East,3.5,-,N/A,,Overcast,100,2012-11-05 16:55:00
11:15 AM,41.0,26.6,57,30.20,10.0,South,3.5,-,N/A,,Mostly Cloudy,190,2012-11-05 17:15:00
11:35 AM,42.8,26.6,53,30.19,10.0,South,5.8,-,N/A,,Mostly Cloudy,180,2012-11-05 17:35:00
11:55 AM,42.8,26.6,53,30.18,10.0,SSE,4.6,-,N/A,,Scattered Clouds,160,2012-11-05 17:55:00
12:15 PM,42.8,26.6,53,30.17,10.0,SE,3.5,-,N/A,,Scattered Clouds,140,2012-11-05 18:15:00
12:35 PM,42.8,28.4,57,30.16,10.0,Calm,Calm,-,N/A,,Overcast,0,2012-11-05 18:35:00
12:55 PM,42.8,28.4,57,30.15,10.0,SSW,5.8,-,N/A,,Overcast,210,2012-11-05 18:55:00
1:15 PM,42.8,28.4,57,30.15,10.0,SW,4.6,-,N/A,,Overcast,220,2012-11-05 19:15:00
1:35 PM,42.8,28.4,57,30.14,10.0,SSW,5.8,-,N/A,,Overcast,210,2012-11-05 19:35:00
1:55 PM,41.0,28.4,61,30.14,10.0,SSW,4.6,-,N/A,,Overcast,210,2012-11-05 19:55:00
2:15 PM,41.0,28.4,61,30.13,10.0,South,5.8,-,N/A,,Overcast,190,2012-11-05 20:15:00
2:35 PM,41.0,28.4,61,30.13,10.0,South,5.8,-,N/A,,Overcast,190,2012-11-05 20:35:00
2:55 PM,41.0,28.4,61,30.11,10.0,South,4.6,-,N/A,,Overcast,190,2012-11-05 20:55:00
3:15 PM,41.0,28.4,61,30.10,10.0,South,4.6,-,N/A,,Overcast,180,2012-11-05 21:15:00
3:55 PM,41.0,28.4,61,30.10,10.0,South,4.6,-,N/A,,Overcast,190,2012-11-05 21:55:00
4:15 PM,41.0,30.2,65,30.10,10.0,SSW,3.5,-,N/A,,Overcast,210,2012-11-05 22:15:00
4:35 PM,41.0,30.2,65,30.09,10.0,SSW,4.6,-,N/A,,Overcast,200,2012-11-05 22:35:00
4:55 PM,41.0,30.2,65,30.10,10.0,SW,3.5,-,N/A,,Overcast,220,2012-11-05 22:55:00
5:15 PM,41.0,30.2,65,30.09,10.0,SSW,5.8,-,N/A,,Overcast,210,2012-11-05 23:15:00
5:35 PM,41.0,30.2,65,30.08,10.0,South,4.6,-,N/A,,Overcast,190,2012-11-05 23:35:00
5:55 PM,41.0,30.2,65,30.08,10.0,South,6.9,-,N/A,,Overcast,190,2012-11-05 23:55:00
6:15 PM,39.2,30.2,70,30.07,10.0,South,5.8,-,N/A,,Overcast,190,2012-11-06 00:15:00
6:35 PM,39.2,30.2,70,30.06,10.0,South,6.9,-,N/A,,Overcast,190,2012-11-06 00:35:00
6:55 PM,39.2,30.2,70,30.05,10.0,South,8.1,-,N/A,,Overcast,190,2012-11-06 00:55:00
7:15 PM,39.2,30.2,70,30.04,10.0,South,6.9,-,N/A,,Overcast,190,2012-11-06 01:15:00
7:35 PM,39.2,30.2,70,30.04,10.0,SSW,5.8,-,N/A,,Overcast,210,2012-11-06 01:35:00
7:55 PM,39.2,30.2,70,30.03,10.0,South,5.8,-,N/A,,Overcast,190,2012-11-06 01:55:00
8:15 PM,41.0,30.2,65,30.03,10.0,SSW,5.8,-,N/A,,Overcast,200,2012-11-06 02:15:00
8:35 PM,41.0,30.2,65,30.02,10.0,South,8.1,-,N/A,,Overcast,190,2012-11-06 02:35:00
8:55 PM,41.0,30.2,65,30.01,10.0,SSW,6.9,-,N/A,,Overcast,200,2012-11-06 02:55:00
9:15 PM,41.0,30.2,65,30.00,10.0,South,8.1,-,N/A,,Overcast,190,2012-11-06 03:15:00
9:35 PM,41.0,30.2,65,29.98,10.0,SSW,10.4,-,N/A,,Overcast,200,2012-11-06 03:35:00
9:55 PM,41.0,30.2,65,29.98,10.0,SSW,9.2,-,N/A,,Overcast,200,2012-11-06 03:55:00
10:15 PM,41.0,30.2,65,29.97,10.0,SSW,10.4,16.1,N/A,,Overcast,200,2012-11-06 04:15:00
10:35 PM,41.0,30.2,65,29.96,10.0,SSW,10.4,-,N/A,,Overcast,200,2012-11-06 04:35:00
10:55 PM,41.0,30.2,65,29.95,10.0,SSW,9.2,-,N/A,,Overcast,200,2012-11-06 04:55:00
11:15 PM,41.0,32.0,70,29.93,10.0,SSW,8.1,-,N/A,,Overcast,200,2012-11-06 05:15:00
11:35 PM,41.0,32.0,70,29.93,10.0,SW,9.2,-,N/A,,Overcast,220,2012-11-06 05:35:00
11:55 PM,41.0,32.0,70,29.92,10.0,SSW,9.2,-,N/A,,Overcast,210,2012-11-06 05:55:00